Location: Ferintosh
(52.7647°N, 112.9692°W)
Time: 13:57:33
(UTC+00:00)

Transit 2A - Pass Details

Date: 19 May 2024
Orbit: 592 x 959 km, 66.7° (Epoch: 23 June)

Event Time Altitude Azimuth Distance (km) Brightness Sun altitude
Rises 13:26:25 0° 318° (NW) 3,267 9.0 15.5°
Reaches altitude 10° 13:28:57 10° 327° (NNW) 2,397 8.4 15.8°
Maximum altitude 13:34:03 35° 33° (NNE) 1,355 8.1 16.6°
Drops below altitude 10° 13:39:34 10° 99° (E) 2,598 10.4 17.4°
Sets 13:42:24 0° 108° (ESE) 3,578 10.6 17.8°
